Torna al catalogo

CZ-8 R/B

AttivoPO
NORAD 69122·ROCKET BODY·🇨🇳 China

Lanciato May 17, 2026 da Wenchang Space Launch Site

Loading…

Prossimi Passaggi (prossime 24 ore)

TLE

AggiornatoSource: Space-Track

Epoca: Sep 14, 2026, 14:11 UTC

1 69122U 26108U   26257.59144289  .00000184  00000-0  52617-4 0  9999
2 69122  89.0188  11.7594 0069157  79.4338 281.4643 14.39222221 17267

Traccia CZ-8 R/B in tempo reale con AllMySat

Download on the App Store